Starlink 35957

operational
NORAD ID: 66823 Int'l Des: 2025-280 Owner: SPXS Country: US Constellation: starlink
LEOCIRCULAR

About Starlink 35957

Description loading...

Live Position

Loading 3D Globe...

Upcoming Passes

Altitude History

Altitude vs Time

uPlot chart will show altitude changes over time

Two-Line Element Set

1 66823U 25280C 26013.25002315 .00034549 00000-0 28904-2 0 9992
2 66823 69.9997 114.1308 0003013 248.0935 137.7657 14.98311835 5770
Epoch: Jan 13, 2026 • Age: 9 hours

Current Status

Altitude 581.8 km
Velocity 7.57 km/s
Sub-Earth Point -32.12°S, 29.51°W
Launch Date Dec 2, 2025
Age 0.1 years
Type internet

Technical Details

Classification Payload
Mass 575.00 kg
Dry Mass 530.00 kg
Total Mass 575.00 kg
Length 0.30 m
Diameter 4.10 m
Span 29.00 m
Shape Box + pan
Manufacturer SPXS
Bus Type Starlink V2MO
Phase Status In Orbit
Owner/State SPXS/US

Large Constellations

Loading constellations...